Location: st. louis
(38.4966°N, 90.2087°W)
Time: 00:59:26
(UTC-05:00)

ISS - Pass Details

Date: 04 October 2013
Orbit: 401 x 404 km, 51.6° (Epoch: 28 July)

Event Time Altitude Azimuth Distance (km) Brightness Sun altitude
Exits shadow 04:32:27 13° 102° (ESE) 1,306 -0.1 -29.2°
Drops below altitude 10° 04:32:54 10° 105° (ESE) 1,477 0.2 -29.1°
Enters shadow 05:33:59 -59° 314° (NW) 11,434 4.0 -17.5°
